FW1098 Weather Reports


time (UTC)temp
F
wind
direction
speed
knots
gust
knots
rain 1hr
in
rain 24hr
in
rain mn
in
humidity
%
barometer
mb
20260510220038 85 207 0.0 3.5 0.00 0.00 0.00 44 1014.6
20260510214532 84 238 0.9 3.5 0.00 0.00 0.00 44 1014.7
20260510213035 84 238 0.9 2.6 0.00 0.00 0.00 47 1014.8
20260510211532 84 241 2.6 6.1 0.00 0.00 0.00 46 1014.7
20260510210030 84 232 0.0 6.1 0.00 0.00 0.00 46 1014.7
20260510204534 85 256 0.0 2.6 0.00 0.00 0.00 45 1014.7
20260510203037 83 256 0.9 4.3 0.00 0.00 0.00 46 1014.7
20260510201528 85 350 0.0 3.5 0.00 0.00 0.00 49 1014.8
20260510200027 84 230 1.7 5.2 0.00 0.00 0.00 44 1014.9
20260510194526 84 249 0.9 4.3 0.00 0.00 0.00 45 1015.1
20260510193025 83 155 0.9 7.8 0.00 0.00 0.00 47 1015.1
20260510191524 83 101 0.9 6.1 0.00 0.00 0.00 46 1015.2
20260510190028 83 238 0.9 4.3 0.00 0.00 0.00 45 1015.4
20260510184521 83 203 2.6 5.2 0.00 0.00 0.00 46 1015.4
20260510183032 83 266 2.6 8.7 0.00 0.00 0.00 47 1015.6
20260510181518 82 331 2.6 6.1 0.00 0.00 0.00 46 1015.7
20260510180025 81 117 0.9 8.7 0.00 0.00 0.00 48 1015.9
20260510174517 82 265 0.9 5.2 0.00 0.00 0.00 47 1016.0
20260510173014 81 200 1.7 6.1 0.00 0.00 0.00 48 1016.2
20260510171512 81 182 0.0 5.2 0.00 0.00 0.00 56 1016.3
20260510170014 79 221 0.9 6.1 0.00 0.00 0.00 54 1016.5
20260510164515 79 43 0.0 2.6 0.00 0.00 0.00 54 1016.7
20260510163010 79 242 1.7 4.3 0.00 0.00 0.00 54 1016.7
20260510161503 79 340 1.7 4.3 0.00 0.00 0.00 58 1016.6
20260510160109 78 136 0.0 2.6 0.00 0.00 0.00 59 1016.7
20260510154617 78 233 0.0 4.3 0.00 0.00 0.00 59 1016.7
20260510153056 78 331 1.7 7.0 0.00 0.00 0.00 61 1016.6
20260510151549 76 44 0.9 6.1 0.00 0.00 0.00 63 1016.7
20260510150045 75 176 0.9 5.2 0.00 0.00 0.00 69 1016.6
20260510144541 73 63 0.0 4.3 0.00 0.00 0.00 74 1016.5
20260510143042 72 69 1.7 4.3 0.00 0.00 0.00 75 1016.4
20260510141536 71 190 0.9 3.5 0.00 0.00 0.00 77 1016.5
20260510140029 70 51 0.9 4.3 0.00 0.00 0.00 82 1016.4
20260510134526 67 236 0.0 6.1 0.00 0.00 0.00 92 1016.4
20260510133021 64 207 0.0 4.3 0.00 0.00 0.00 97 1016.4
20260510131518 63 200 0.0 0.0 0.00 0.00 0.00 96 1016.4
20260510130026 63 198 0.0 2.6 0.00 0.00 0.00 96 1016.4
20260510124516 63 198 0.9 3.5 0.00 0.00 0.00 96 1016.3
20260510123015 63 107 0.0 0.0 0.00 0.00 0.00 96 1016.4
20260510121514 62 107 0.0 2.6 0.00 0.00 0.00 96 1016.2
20260510120011 61 322 0.0 0.9 0.00 0.00 0.00 96 1016.0
20260510114513 61 289 0.0 0.0 0.00 0.00 0.00 96 1015.8
20260510113012 59 141 0.0 0.0 0.00 0.00 0.00 95 1015.7
20260510111505 59 141 0.0 0.9 0.00 0.00 0.00 95 1015.4
20260510110007 59 124 0.0 0.0 0.00 0.00 0.00 95 1015.2
20260510104610 59 124 0.0 0.0 0.00 0.00 0.00 95 1015.0
20260510103056 59 124 0.0 0.0 0.00 0.00 0.00 95 1014.8
20260510101556 59 124 0.0 0.0 0.00 0.00 0.00 95 1014.7
20260510100056 60 124 0.0 0.0 0.00 0.00 0.00 95 1014.5
20260510094551 60 124 0.0 0.0 0.00 0.00 0.00 95 1014.2
20260510093050 60 124 0.0 0.0 0.00 0.00 0.00 95 1014.2
20260510091556 60 124 0.0 0.0 0.00 0.00 0.00 95 1014.2
20260510090100 60 124 0.0 0.0 0.00 0.00 0.00 95 1013.9
20260510084555 61 124 0.0 0.0 0.00 0.00 0.00 95 1013.7
20260510083047 61 124 0.0 0.0 0.00 0.00 0.00 95 1013.5
20260510081547 61 124 0.0 0.0 0.00 0.00 0.00 94 1013.6
20260510080058 61 124 0.0 0.0 0.00 0.00 0.00 94 1013.5
20260510074545 61 124 0.0 0.0 0.00 0.00 0.00 94 1013.5
20260510073044 61 124 0.0 0.0 0.00 0.00 0.00 94 1013.3
20260510071543 61 124 0.0 0.0 0.00 0.00 0.00 94 1013.5
20260510070047 61 124 0.0 0.0 0.00 0.00 0.00 94 1013.4
20260510064600 61 124 0.0 0.0 0.00 0.00 0.00 93 1013.6
20260510063046 61 124 0.0 0.0 0.00 0.00 0.00 93 1013.3
20260510061547 61 124 0.0 0.0 0.00 0.00 0.00 93 1013.3
20260510060041 61 124 0.0 0.0 0.00 0.00 0.00 93 1013.5
20260510054538 61 124 0.0 0.0 0.00 0.00 0.00 93 1013.5
20260510053037 61 124 0.0 0.0 0.00 0.00 0.00 93 1013.7
20260510051535 62 124 0.0 0.0 0.00 0.00 0.00 92 1013.8
20260510050039 62 124 0.0 0.0 0.00 0.00 0.00 92 1013.8
20260510044535 62 124 0.0 0.0 0.00 0.00 0.00 92 1013.9
20260510043031 62 124 0.0 0.0 0.00 0.00 0.00 91 1013.9
20260510041531 63 124 0.0 0.0 0.00 0.00 0.00 90 1013.9
20260510040028 63 124 0.0 0.0 0.00 0.00 0.00 90 1013.7
20260510034528 63 124 0.0 0.0 0.00 0.00 0.00 90 1013.6
20260510033027 64 124 0.0 0.0 0.00 0.00 0.00 90 1013.6
20260510031533 64 124 0.0 0.0 0.00 0.00 0.00 89 1013.6
20260510030025 64 124 0.0 0.0 0.00 0.00 0.00 89 1013.6
20260510024531 64 124 0.0 0.0 0.00 0.00 0.00 89 1013.6
20260510023025 65 124 0.0 0.0 0.00 0.00 0.00 89 1013.6
20260510021524 65 124 0.0 0.0 0.00 0.00 0.00 88 1013.6
20260510020024 66 124 0.0 0.0 0.00 0.00 0.00 88 1013.4
20260510014528 66 124 0.0 0.0 0.00 0.00 0.00 87 1013.3
20260510013024 67 124 0.0 0.0 0.00 0.00 0.00 87 1013.1
20260510011524 67 124 0.0 0.0 0.00 0.00 0.00 86 1012.9
20260510010023 68 124 0.0 0.0 0.00 0.00 0.00 86 1012.8
20260510004521 68 124 0.0 0.0 0.00 0.00 0.00 86 1012.7
20260510003022 68 124 0.0 0.0 0.00 0.00 0.00 86 1012.5
20260510001521 69 124 0.0 0.0 0.00 0.00 0.00 86 1012.0
20260510000120 69 124 0.0 0.0 0.00 0.00 0.00 87 1011.9
20260509234533 69 124 0.0 0.0 0.00 0.00 0.00 86 1011.7
20260509233031 70 124 0.0 0.9 0.00 0.00 0.00 85 1011.5
20260509231518 70 215 0.0 0.9 0.00 0.00 0.00 83 1011.3
20260509230017 71 215 0.0 1.7 0.00 0.00 0.00 81 1011.4
20260509224518 72 215 0.0 3.5 0.00 0.00 0.00 79 1011.2
20260509223017 72 190 0.0 4.3 0.00 0.00 0.00 78 1011.0
20260509221516 72 239 0.9 3.5 0.00 0.00 0.00 77 1011.3